Aérodrome :
LOGIN :

S'inscrire | Disclaimer

   EN    FR    IT 

 










Légende :    VFR   VFR Marginal   IFR   IFR Intensif   IFR Très Intensif
Visi : 
Plafond : 
>= 8 km
>= 3000ft
5 à 8 km
1000 à 3000 ft
1500m à 5 km
500 à 1000 ft
800 à 1500m
200 à 500 ft
< 800m
< 200 ft
Symboles :   Orages  Brouillard  Fortes neiges  Fortes précipitations  Vent > 20 kt
SIGMETs :   Divers  Orages  Givrage  Turbulence  Onde Orograph.  Cendres Volcan.






- Altitude de l'aérodrome : 319 ft


EIME - Casement Air Base

DERNIER METAR :
  • 011400Z 32007KT 9999 FEW030 BKN050 09/01 Q1025

METARs EXPIRÉS :
  • 011330Z 31008KT 9999 SCT030 BKN045 09/02 Q1025
  • 011300Z 31007KT 9999 SCT029 BKN045 08/02 Q1025
  • 011230Z 32007KT 9999 FEW027 BKN041 08/02 Q1025
  • 011200Z 32010KT 9999 FEW029 BKN044 08/01 Q1026
  • 011130Z 29010KT 9999 SCT027 BKN043 08/01 Q1026

TAF TAF EIME
Valide du 01 à 12h jusqu'au 01 à 21h UTC


011100Z 0112/0121 30009KT 9999 SCT020 BKN040



MET'MAP, la Météo Aéronautique d'un coup d'oeil ! - Copyright ORBIFLY Décembre 2007 - Disclaimer

ORBIFLY MET'MAP TEAM :

Programmation & Développement : Alexandra Zaïnal
Sur une idée originale de : Baudouin d'Aumeries
Assistance à la programmation : Marc-Olivier Méhu
Soutien technique & logistique : Manuel Goepfert

Contact : metmap@orbifly.com




SOURCES & CREDITS :

   NOAA